• In United Kingdom
  • List of Countries
  • For 7 days
  • Water Temperature
  • Satellite Maps
  • Weather Map
  • Weather Widgets
  • user-avatar
    Login

    Hourly Weather Morpeth

    Today, 20 September, Thursday

    Time Temperature Precipitation Wind Pressure Humidity
    00:00 +9°C° 0 mm 8 mps 749 mmHg 69%
    01:00 +9°C° 0 mm 8 mps 749 mmHg 70%
    02:00 +8°C° 0 mm 9 mps 749 mmHg 71%
    03:00 +8°C° 0 mm 9 mps 749 mmHg 71%
    04:00 +9°C° 0 mm 8 mps 749 mmHg 73%
    05:00 +7°C° 0 mm 8 mps 749 mmHg 74%
    06:00 +8°C° 0 mm 7 mps 750 mmHg 76%
    07:00 +9°C° 0 mm 7 mps 750 mmHg 74%
    08:00 +10°C° 0 mm 7 mps 750 mmHg 72%
    09:00 +11°C° 0 mm 7 mps 750 mmHg 70%
    10:00 +11°C° 0 mm 6 mps 750 mmHg 68%
    11:00 +13°C° 0 mm 6 mps 750 mmHg 65%
    12:00 +14°C° 0 mm 5 mps 749 mmHg 63%
    13:00 +13°C° 0.1 mm 4 mps 748 mmHg 66%
    14:00 +13°C° 0.1 mm 3 mps 748 mmHg 68%
    15:00 +13°C° 0.1 mm 3 mps 747 mmHg 71%
    16:00 +12°C° 2.1 mm 3 mps 746 mmHg 78%
    17:00 +11°C° 2.1 mm 3 mps 744 mmHg 85%
    18:00 +10°C° 2.1 mm 3 mps 743 mmHg 92%
    19:00 +10°C° 1.1 mm 4 mps 742 mmHg 92%
    20:00 +10°C° 1.1 mm 4 mps 741 mmHg 92%
    21:00 +9°C° 1.1 mm 5 mps 741 mmHg 92%
    22:00 +8°C° 0.9 mm 5 mps 740 mmHg 92%
    23:00 +8°C° 0.9 mm 5 mps 739 mmHg 92%

    Tomorrow, 21 September, Friday

    Time Temperature Precipitation Wind Pressure Humidity
    00:00 +8°C° 0.9 mm 6 mps 739 mmHg 92%
    01:00 +6°C° 1.8 mm 7 mps 739 mmHg 91%
    02:00 +6°C° 1.8 mm 8 mps 739 mmHg 90%
    03:00 +5°C° 1.8 mm 9 mps 740 mmHg 89%
    04:00 +5°C° 0.6 mm 8 mps 740 mmHg 88%
    05:00 +5°C° 0.6 mm 8 mps 741 mmHg 87%
    06:00 +5°C° 0.6 mm 8 mps 742 mmHg 86%
    07:00 +6°C° 0 mm 8 mps 742 mmHg 83%
    08:00 +7°C° 0 mm 9 mps 743 mmHg 80%
    09:00 +8°C° 0 mm 9 mps 743 mmHg 77%
    10:00 +9°C° 0.3 mm 8 mps 744 mmHg 78%
    11:00 +9°C° 0.3 mm 7 mps 744 mmHg 79%
    12:00 +9°C° 0.3 mm 6 mps 744 mmHg 81%
    13:00 +10°C° 0.1 mm 6 mps 745 mmHg 77%
    14:00 +11°C° 0.1 mm 6 mps 746 mmHg 73%
    15:00 +12°C° 0.1 mm 7 mps 747 mmHg 69%
    16:00 +11°C° 0.1 mm 6 mps 748 mmHg 72%
    17:00 +10°C° 0.1 mm 5 mps 749 mmHg 76%
    18:00 +9°C° 0.1 mm 5 mps 750 mmHg 79%
    19:00 +9°C° 0 mm 6 mps 751 mmHg 81%
    20:00 +8°C° 0 mm 6 mps 752 mmHg 83%
    21:00 +8°C° 0 mm 7 mps 752 mmHg 85%
    22:00 +6°C° 0 mm 7 mps 752 mmHg 84%
    23:00 +6°C° 0 mm 8 mps 753 mmHg 83%

    Day after tomorrow, 22 September, Saturday

    Time Temperature Precipitation Wind Pressure Humidity
    00:00 +6°C° 0 mm 8 mps 753 mmHg 82%
    01:00 +6°C° 0 mm 8 mps 754 mmHg 81%
    02:00 +6°C° 0 mm 8 mps 754 mmHg 81%
    03:00 +6°C° 0 mm 8 mps 755 mmHg 80%
    04:00 +6°C° 0 mm 8 mps 755 mmHg 81%
    05:00 +5°C° 0 mm 7 mps 755 mmHg 81%
    06:00 +5°C° 0 mm 7 mps 756 mmHg 82%
    07:00 +6°C° 0 mm 7 mps 756 mmHg 79%
    08:00 +8°C° 0 mm 7 mps 756 mmHg 75%
    09:00 +9°C° 0 mm 7 mps 757 mmHg 72%
    10:00 +10°C° 0 mm 7 mps 757 mmHg 69%
    11:00 +10°C° 0 mm 6 mps 757 mmHg 67%
    12:00 +11°C° 0 mm 6 mps 757 mmHg 64%
    13:00 +11°C° 0 mm 6 mps 757 mmHg 65%
    14:00 +12°C° 0 mm 5 mps 757 mmHg 65%
    15:00 +12°C° 0 mm 5 mps 757 mmHg 65%
    16:00 +11°C° 0 mm 4 mps 756 mmHg 69%
    17:00 +11°C° 0 mm 4 mps 756 mmHg 73%
    18:00 +10°C° 0 mm 3 mps 756 mmHg 77%
    19:00 +9°C° 0 mm 2 mps 756 mmHg 80%
    20:00 +9°C° 0 mm 2 mps 756 mmHg 82%
    21:00 +9°C° 0 mm 1 mps 756 mmHg 84%
    22:00 +9°C° 0 mm 1 mps 756 mmHg 84%
    23:00 +9°C° 0 mm 1 mps 755 mmHg 84%

    23 September, Sunday

    Time Temperature Precipitation Wind Pressure Humidity
    00:00 +9°C° 0 mm 1 mps 755 mmHg 84%
    01:00 +8°C° 0.1 mm 2 mps 755 mmHg 85%
    02:00 +8°C° 0.1 mm 2 mps 754 mmHg 85%
    03:00 +8°C° 0.1 mm 2 mps 754 mmHg 86%
    04:00 +8°C° 0.4 mm 3 mps 754 mmHg 87%
    05:00 +7°C° 0.4 mm 4 mps 754 mmHg 87%
    06:00 +7°C° 0.4 mm 5 mps 754 mmHg 88%
    07:00 +7°C° 0.5 mm 6 mps 754 mmHg 87%
    08:00 +8°C° 0.5 mm 7 mps 754 mmHg 85%
    09:00 +7°C° 0.5 mm 8 mps 754 mmHg 83%
    10:00 +7°C° 0.3 mm 8 mps 755 mmHg 80%
    11:00 +9°C° 0.3 mm 8 mps 756 mmHg 76%
    12:00 +8°C° 0.3 mm 9 mps 756 mmHg 73%
    13:00 +9°C° 0 mm 8 mps 757 mmHg 69%
    14:00 +9°C° 0 mm 8 mps 758 mmHg 66%
    15:00 +10°C° 0 mm 8 mps 759 mmHg 62%
    16:00 +9°C° 0 mm 7 mps 760 mmHg 65%
    17:00 +8°C° 0 mm 7 mps 761 mmHg 68%
    18:00 +7°C° 0 mm 6 mps 762 mmHg 70%
    19:00 +5°C° 0 mm 6 mps 763 mmHg 72%
    20:00 +5°C° 0 mm 5 mps 764 mmHg 73%
    21:00 +5°C° 0 mm 5 mps 765 mmHg 74%
    22:00 +3°C° 0 mm 5 mps 765 mmHg 75%
    23:00 +4°C° 0 mm 4 mps 766 mmHg 76%

    24 September, Monday

    Time Temperature Precipitation Wind Pressure Humidity
    00:00 +4°C° 0 mm 4 mps 766 mmHg 76%
    01:00 +4°C° 0 mm 4 mps 767 mmHg 76%
    02:00 +4°C° 0 mm 4 mps 767 mmHg 76%
    03:00 +4°C° 0 mm 4 mps 767 mmHg 76%
    04:00 +3°C° 0 mm 5 mps 768 mmHg 79%
    05:00 +3°C° 0 mm 5 mps 768 mmHg 81%
    06:00 +3°C° 0 mm 6 mps 768 mmHg 84%
    07:00 +5°C° 0 mm 6 mps 768 mmHg 79%
    08:00 +6°C° 0 mm 7 mps 769 mmHg 75%
    09:00 +9°C° 0 mm 7 mps 769 mmHg 71%
    10:00 +10°C° 0 mm 7 mps 769 mmHg 68%
    11:00 +11°C° 0 mm 7 mps 769 mmHg 65%
    12:00 +12°C° 0 mm 7 mps 770 mmHg 62%
    13:00 +12°C° 0 mm 7 mps 770 mmHg 63%
    14:00 +12°C° 0 mm 7 mps 769 mmHg 64%
    15:00 +12°C° 0 mm 7 mps 769 mmHg 65%
    16:00 +11°C° 0 mm 7 mps 769 mmHg 69%
    17:00 +10°C° 0 mm 7 mps 769 mmHg 73%
    18:00 +9°C° 0 mm 7 mps 769 mmHg 76%
    19:00 +9°C° 0 mm 7 mps 769 mmHg 78%
    20:00 +8°C° 0 mm 7 mps 769 mmHg 79%
    21:00 +8°C° 0 mm 7 mps 770 mmHg 81%
    22:00 +8°C° 0 mm 7 mps 769 mmHg 81%
    23:00 +8°C° 0 mm 7 mps 769 mmHg 82%

    25 September, Tuesday

    Time Temperature Precipitation Wind Pressure Humidity
    00:00 +8°C° 0 mm 7 mps 769 mmHg 82%
    01:00 +8°C° 0 mm 7 mps 769 mmHg 82%
    02:00 +8°C° 0 mm 7 mps 769 mmHg 82%
    03:00 +8°C° 0 mm 7 mps 769 mmHg 83%
    04:00 +8°C° 0 mm 6 mps 769 mmHg 83%
    05:00 +8°C° 0 mm 6 mps 769 mmHg 84%
    06:00 +8°C° 0 mm 6 mps 769 mmHg 85%
    07:00 +9°C° 0 mm 6 mps 769 mmHg 84%
    08:00 +9°C° 0 mm 6 mps 769 mmHg 82%
    09:00 +10°C° 0 mm 6 mps 769 mmHg 81%
    10:00 +11°C° 0 mm 6 mps 769 mmHg 77%
    11:00 +13°C° 0 mm 6 mps 769 mmHg 73%
    12:00 +13°C° 0 mm 6 mps 769 mmHg 69%
    13:00 +13°C° 0 mm 6 mps 768 mmHg 67%
    14:00 +13°C° 0 mm 6 mps 768 mmHg 66%
    15:00 +13°C° 0 mm 6 mps 767 mmHg 64%
    16:00 +11°C° 0 mm 6 mps 767 mmHg 70%
    17:00 +10°C° 0 mm 6 mps 767 mmHg 75%
    18:00 +9°C° 0 mm 5 mps 766 mmHg 80%
    19:00 +9°C° 0 mm 6 mps 766 mmHg 81%
    20:00 +9°C° 0 mm 6 mps 766 mmHg 82%
    21:00 +9°C° 0 mm 6 mps 766 mmHg 83%
    22:00 +9°C° 0 mm 7 mps 766 mmHg 84%
    23:00 +9°C° 0 mm 7 mps 766 mmHg 84%
    Show more